User: anonymous   Login
Location: Unspecified
(0.0000°N, 0.0000°E)
Time: 16:03:56
(UTC+00:00)
Language:

UNISAT 2 - Orbit

View from above orbital plane
View from above orbital plane
View from above satellite
View from above satellite

Ground track
Ground track

The orbit data is extracted from the following two-line orbital elements,

1 27608U 02058D   19078.49862234 -.00000041 +00000-0 +14599-4 0  9999
2 27608 064.5538 247.6773 0067179 264.4646 094.8793 14.77979878875269
Epoch (UTC): 19 March 2019 11:58:00
Eccentricity: 0.0067179
inclination: 64.5538°
perigee height: 588 km
apogee height: 683 km
right ascension of ascending node: 247.6773°
argument of perigee: 264.4646°
revolutions per day: 14.77979878
mean anomaly at epoch: 94.8793°
orbit number at epoch: 87526

The dashed part of the orbit path shows where the satellite is in the earth's shadow,  

DLR